Погода в Нягани

Россия / Ханты-Мансийский автономный округ - Югра     62°08′44″N   65°26′01″E
темп.,
°C
ветер,
м/с
пор.,
м/с
влажн.,
%
обл.,
%
осадки,
мм/ч
давл.,
гПа
погр.,
м
5 августа, чт
чт523:00+17ююв256556 0.0 101187
02:00+16юв237535 0.0 101165
05:00+15ююв24815 0.0 101072
08:00+21юв3561100 0.0 1010361
11:00+25юв454766 0.0 10091132
14:00+28юв454248 0.0 10081871
17:00+24ююз3660100 0.0 1008375
20:00+21вюв2480100 0.3 100881
6 августа, пт
пт623:00+20юв3108385 0.4 1007296
02:00+19юв3117795 0.0 1007485
05:00+17вюв3108835 0.0 1007317
08:00+20вюв487065 0.0 1007534
11:00+24юв585584 0.0 10071472
14:00+22юв477086 1.0 10071008
17:00+19ю2891100 3.1 1008359
20:00+18ююв119697 0.3 100923
7 августа, сб
сб723:00+16юз119887 0.3 100911
02:00+16сз0098100 0.3 100912
05:00+15сз119870 0.3 101019
08:00+18ссз239199 0.0 1010208
11:00+21ссз2272100 0.0 1010456
14:00+26ссв125129 0.9 10091011
17:00+23зсз356547 2.5 1009448
20:00+18зсз389496 2.6 1010262
8 августа, вс
вс823:00+16сз2897100 3.1 1010220
02:00+15сз259972 1.1 1010136
05:00+15сз249940 1.1 1011107
08:00+18сз229018 0.0 1012235
11:00+23ссз23665 0.0 1012711
14:00+27ссз235266 0.1 10121399
17:00+23сз357389 1.6 1013128
20:00+19зсз4893100 8.9 1013258
9 августа, пн
пн923:00+17сз3897100 14.2 1014320
02:00+16сз3998100 0.1 1014400
05:00+15зсз3896100 0.1 1015448
08:00+15сз379388 0.1 1015459
11:00+18сз457146 0.1 1015734
14:00+20сз455983 0.0 10161247
17:00+19зсз3464100 0.0 1016751
20:00+16зсз2678100 0.0 1016333